Location: Newark
(47.5500°N, 8.6167°E)
Time: 01:16:38
(UTC+00:00)

Envisat - Pass Details

Date: 30 January 2020
Orbit: 764 x 766 km, 98.1° (Epoch: 25 February)

Event Time Altitude Azimuth Distance (km) Brightness Sun altitude
Rises 04:45:49 0° 30° (NNE) 3,243 6.6 -21.9°
Reaches altitude 10° 04:49:11 10° 53° (NE) 2,310 6.1 -21.3°
Maximum altitude 04:52:03 15° 88° (E) 1,973 6.2 -20.8°
Drops below altitude 10° 04:54:56 10° 123° (ESE) 2,299 6.4 -20.3°
Sets 04:58:15 0° 146° (SE) 3,219 6.8 -19.8°
